Location: Unspecified
(38.3360°N, 0.0000°E)
Time: 22:45:52
(UTC+00:00)

ISS - Visible Passes

Search period start: 19 May 2019 00:00
Search period end: 29 May 2019 00:00
Orbit: 407 x 410 km, 51.6° (Epoch: 20 May)

Date Brightness Start Highest point End Pass type
(mag) Time Alt. Az. Time Alt. Az. Time Alt. Az.
19 May -0.7 01:43:40 10° NNW 01:45:50 16° NNE 01:47:59 10° ENE visible
19 May -3.9 03:19:29 10° NW 03:22:47 88° SW 03:26:05 10° SE visible
19 May -3.9 19:59:02 10° SW 20:02:18 68° SE 20:05:35 10° NE visible
19 May -0.8 21:36:48 10° WNW 21:39:10 18° NNW 21:41:33 10° NNE visible
20 May -0.3 00:53:16 10° N 00:54:40 12° NNE 00:56:04 10° NE visible
20 May -2.8 02:28:40 10° NW 02:31:53 48° NE 02:35:06 10° ESE visible
20 May -2.2 04:06:04 10° W 04:08:11 16° SW 04:10:16 10° S visible
20 May -1.5 20:45:14 10° W 20:48:05 26° NNW 20:50:57 10° NNE visible
21 May -2.0 03:19:20 17° S 03:19:20 17° S 03:20:23 10° SSE visible
21 May -2.5 19:53:55 10° WSW 19:57:04 43° NW 20:00:15 10° NE visible
21 May -0.4 21:33:05 10° NW 21:34:20 12° NNW 21:35:35 10° N visible
22 May -0.6 20:41:05 10° WNW 20:43:07 15° NNW 20:45:10 10° NNE visible
22 May -0.3 23:56:50 10° NNW 23:57:16 11° N 23:57:16 11° N visible
23 May -1.0 19:49:21 10° W 19:51:59 21° NNW 19:54:37 10° NNE visible
23 May -0.4 23:06:32 10° N 23:07:24 11° NNE 23:07:45 11° NNE visible
24 May -0.3 20:37:39 10° NNW 20:38:16 10° NNW 20:38:52 10° N visible
24 May -0.3 23:50:57 10° NNW 23:51:01 10° NNW 23:51:01 10° NNW visible
25 May -0.7 19:45:20 10° NW 19:46:59 13° NNW 19:48:40 10° NNE visible
25 May -0.7 23:00:20 10° NNW 23:01:37 15° N 23:01:37 15° N visible
26 May -0.8 22:09:51 10° N 22:11:15 12° NNE 22:12:14 11° NE visible
27 May -0.9 22:54:28 10° NNW 22:55:36 18° NNW 22:55:36 18° NNW visible
28 May -1.4 22:03:46 10° NNW 22:06:14 19° NNE 22:06:15 19° NNE visible
